| time (UTC) | temp F | wind direction | speed MPH | gust MPH | rain 1hr in | rain 24hr in | rain mn in | humidity % | barometer mb |
| 20260906060704 | 72 | 315 | 6.0 | 14.0 | 0.00 | 0.00 | 0.00 | 41 | 1016.2 |
| 20260906060206 | 73 | 335 | 7.0 | 15.0 | 0.00 | 0.00 | 0.00 | 41 | 1016.3 |
| 20260906055704 | 73 | 309 | 9.0 | 15.0 | 0.00 | 0.00 | 0.00 | 41 | 1016.2 |
| 20260906054704 | 73 | 309 | 8.0 | 13.0 | 0.00 | 0.00 | 0.00 | 41 | 1016.3 |
| 20260906054206 | 73 | 340 | 9.0 | 13.0 | 0.00 | 0.00 | 0.00 | 42 | 1016.3 |
| 20260906053704 | 73 | 323 | 8.0 | 13.0 | 0.00 | 0.00 | 0.00 | 42 | 1016.3 |
| 20260906052705 | 73 | 334 | 8.0 | 13.0 | 0.00 | 0.00 | 0.00 | 43 | 1016.4 |
| 20260906052204 | 74 | 324 | 9.0 | 13.0 | 0.00 | 0.00 | 0.00 | 43 | 1016.4 |
| 20260906051704 | 74 | 332 | 8.0 | 13.0 | 0.00 | 0.00 | 0.00 | 43 | 1016.4 |
| 20260906051204 | 74 | 353 | 8.0 | 18.0 | 0.00 | 0.00 | 0.00 | 43 | 1016.4 |
| 20260906050704 | 74 | 344 | 10.0 | 18.0 | 0.00 | 0.00 | 0.00 | 43 | 1016.4 |
| 20260906050206 | 74 | 329 | 12.0 | 18.0 | 0.00 | 0.00 | 0.00 | 42 | 1016.4 |
| 20260906045704 | 74 | 325 | 12.0 | 16.0 | 0.00 | 0.00 | 0.00 | 43 | 1016.3 |
| 20260906044704 | 74 | 315 | 11.0 | 14.0 | 0.00 | 0.00 | 0.00 | 43 | 1016.3 |
| 20260906044205 | 74 | 331 | 9.0 | 15.0 | 0.00 | 0.00 | 0.00 | 44 | 1016.4 |
| 20260906043704 | 74 | 315 | 9.0 | 15.0 | 0.00 | 0.00 | 0.00 | 44 | 1016.3 |
| 20260906043204 | 75 | 344 | 9.0 | 14.0 | 0.00 | 0.00 | 0.00 | 44 | 1016.4 |
| 20260906042704 | 75 | 322 | 10.0 | 14.0 | 0.00 | 0.00 | 0.00 | 43 | 1016.3 |
| 20260906042206 | 75 | 324 | 8.0 | 14.0 | 0.00 | 0.00 | 0.00 | 43 | 1016.3 |
| 20260906041704 | 75 | 338 | 7.0 | 11.0 | 0.00 | 0.00 | 0.00 | 43 | 1016.3 |
| 20260906041204 | 75 | 327 | 8.0 | 11.0 | 0.00 | 0.00 | 0.00 | 42 | 1016.2 |
| 20260906040703 | 75 | 323 | 8.0 | 11.0 | 0.00 | 0.00 | 0.00 | 42 | 1016.2 |
| 20260906040204 | 75 | 325 | 7.0 | 12.0 | 0.00 | 0.00 | 0.00 | 41 | 1016.1 |
| 20260906035704 | 75 | 324 | 8.0 | 12.0 | 0.00 | 0.00 | 0.00 | 41 | 1016.1 |
| 20260906035204 | 76 | 337 | 8.0 | 12.0 | 0.00 | 0.00 | 0.00 | 41 | 1016.2 |
| 20260906034704 | 76 | 315 | 8.0 | 12.0 | 0.00 | 0.00 | 0.00 | 41 | 1016.1 |
| 20260906034204 | 76 | 330 | 7.0 | 12.0 | 0.00 | 0.00 | 0.00 | 40 | 1016.1 |
| 20260906032704 | 76 | 318 | 6.0 | 11.0 | 0.00 | 0.00 | 0.00 | 39 | 1015.9 |
| 20260906032204 | 76 | 304 | 7.0 | 11.0 | 0.00 | 0.00 | 0.00 | 38 | 1015.9 |
| 20260906031704 | 76 | 300 | 7.0 | 11.0 | 0.00 | 0.00 | 0.00 | 38 | 1015.9 |
| 20260906031205 | 76 | 298 | 6.0 | 11.0 | 0.00 | 0.00 | 0.00 | 38 | 1015.9 |
| 20260906030704 | 76 | 313 | 4.0 | 9.0 | 0.00 | 0.00 | 0.00 | 38 | 1015.7 |
| 20260906030204 | 76 | 317 | 4.0 | 9.0 | 0.00 | 0.00 | 0.00 | 37 | 1015.7 |
| 20260906025705 | 76 | 320 | 3.0 | 9.0 | 0.00 | 0.00 | 0.00 | 37 | 1015.7 |
| 20260906025204 | 77 | 321 | 3.0 | 13.0 | 0.00 | 0.00 | 0.00 | 37 | 1015.6 |
| 20260906024204 | 77 | 304 | 6.0 | 13.0 | 0.00 | 0.00 | 0.00 | 36 | 1015.6 |
| 20260906023706 | 77 | 300 | 6.0 | 12.0 | 0.00 | 0.00 | 0.00 | 35 | 1015.5 |
| 20260906023204 | 77 | 287 | 6.0 | 15.0 | 0.00 | 0.00 | 0.00 | 35 | 1015.5 |
| 20260906022705 | 77 | 358 | 7.0 | 15.0 | 0.00 | 0.00 | 0.00 | 34 | 1015.5 |
| 20260906022204 | 78 | 315 | 8.0 | 15.0 | 0.00 | 0.00 | 0.00 | 33 | 1015.4 |
| 20260906021706 | 78 | 286 | 8.0 | 13.0 | 0.00 | 0.00 | 0.00 | 33 | 1015.4 |
| 20260906021205 | 78 | 358 | 8.0 | 12.0 | 0.00 | 0.00 | 0.00 | 32 | 1015.3 |
| 20260906020704 | 78 | 293 | 7.0 | 14.0 | 0.00 | 0.00 | 0.00 | 32 | 1015.3 |
| 20260906020204 | 79 | 290 | 7.0 | 16.0 | 0.00 | 0.00 | 0.00 | 32 | 1015.3 |
| 20260906014704 | 80 | 273 | 9.0 | 15.0 | 0.00 | 0.00 | 0.00 | 32 | 1015.3 |
| 20260906014204 | 80 | 358 | 9.0 | 13.0 | 0.00 | 0.00 | 0.00 | 31 | 1015.3 |
| 20260906013704 | 80 | 358 | 8.0 | 13.0 | 0.00 | 0.00 | 0.00 | 31 | 1015.3 |
| 20260906013204 | 80 | 358 | 8.0 | 15.0 | 0.00 | 0.00 | 0.00 | 31 | 1015.3 |
| 20260906012704 | 80 | 288 | 9.0 | 15.0 | 0.00 | 0.00 | 0.00 | 31 | 1015.3 |
| 20260906012204 | 81 | 313 | 10.0 | 14.0 | 0.00 | 0.00 | 0.00 | 31 | 1015.3 |
| 20260906011704 | 81 | 358 | 9.0 | 14.0 | 0.00 | 0.00 | 0.00 | 30 | 1015.4 |
| 20260906011205 | 82 | 340 | 8.0 | 13.0 | 0.00 | 0.00 | 0.00 | 34 | 1015.4 |
| 20260906010204 | 83 | 345 | 8.0 | 16.0 | 0.00 | 0.00 | 0.00 | 34 | 1015.4 |
| 20260906005704 | 83 | 353 | 8.0 | 16.0 | 0.00 | 0.00 | 0.00 | 33 | 1015.4 |
| 20260906005204 | 83 | 337 | 8.0 | 16.0 | 0.00 | 0.00 | 0.00 | 33 | 1015.3 |
| 20260906004204 | 83 | 8 | 8.0 | 18.0 | 0.00 | 0.00 | 0.00 | 32 | 1015.3 |
| 20260906003704 | 83 | 343 | 10.0 | 18.0 | 0.00 | 0.00 | 0.00 | 31 | 1015.3 |
| 20260906003204 | 83 | 10 | 10.0 | 18.0 | 0.00 | 0.00 | 0.00 | 32 | 1015.2 |
| 20260906002204 | 84 | 10 | 9.0 | 19.0 | 0.00 | 0.00 | 0.00 | 30 | 1015.2 |
| 20260906001704 | 85 | 331 | 10.0 | 19.0 | 0.00 | 0.00 | 0.00 | 29 | 1015.2 |
| 20260906000206 | 85 | 346 | 9.0 | 15.0 | 0.00 | 0.00 | 0.00 | 29 | 1015.1 |
| 20260905235704 | 85 | 3 | 9.0 | 15.0 | 0.00 | 0.00 | 0.00 | 28 | 1015.1 |
| 20260905235204 | 86 | 51 | 8.0 | 19.0 | 0.00 | 0.00 | 0.00 | 28 | 1015.0 |
| 20260905234705 | 85 | 8 | 10.0 | 19.0 | 0.00 | 0.00 | 0.00 | 28 | 1015.1 |
| 20260905234206 | 85 | 15 | 12.0 | 20.0 | 0.00 | 0.00 | 0.00 | 28 | 1015.0 |
| 20260905233704 | 85 | 21 | 11.0 | 20.0 | 0.00 | 0.00 | 0.00 | 28 | 1015.0 |
| 20260905232704 | 85 | 7 | 13.0 | 22.0 | 0.00 | 0.00 | 0.00 | 27 | 1015.0 |
| 20260905232204 | 85 | 353 | 14.0 | 23.0 | 0.00 | 0.00 | 0.00 | 27 | 1015.0 |
| 20260905231703 | 85 | 11 | 14.0 | 23.0 | 0.00 | 0.00 | 0.00 | 28 | 1015.0 |
| 20260905231205 | 85 | 358 | 14.0 | 23.0 | 0.00 | 0.00 | 0.00 | 26 | 1015.0 |
| 20260905230704 | 86 | 3 | 13.0 | 25.0 | 0.00 | 0.00 | 0.00 | 26 | 1015.0 |
| 20260905230204 | 87 | 3 | 14.0 | 26.0 | 0.00 | 0.00 | 0.00 | 26 | 1014.9 |
| 20260905225705 | 87 | 16 | 15.0 | 26.0 | 0.00 | 0.00 | 0.00 | 26 | 1014.9 |
| 20260905225204 | 87 | 8 | 15.0 | 26.0 | 0.00 | 0.00 | 0.00 | 26 | 1014.9 |
| 20260905224704 | 86 | 353 | 15.0 | 22.0 | 0.00 | 0.00 | 0.00 | 26 | 1015.0 |
| 20260905224203 | 87 | 13 | 14.0 | 21.0 | 0.00 | 0.00 | 0.00 | 26 | 1015.0 |
| 20260905223704 | 87 | 348 | 14.0 | 24.0 | 0.00 | 0.00 | 0.00 | 26 | 1015.0 |
| 20260905223205 | 87 | 353 | 15.0 | 26.0 | 0.00 | 0.00 | 0.00 | 27 | 1015.1 |
| 20260905222704 | 87 | 12 | 15.0 | 26.0 | 0.00 | 0.00 | 0.00 | 27 | 1015.0 |
| 20260905222204 | 87 | 358 | 14.0 | 27.0 | 0.00 | 0.00 | 0.00 | 27 | 1015.1 |
| 20260905221704 | 87 | 12 | 14.0 | 27.0 | 0.00 | 0.00 | 0.00 | 27 | 1015.1 |
| 20260905220704 | 87 | 344 | 15.0 | 24.0 | 0.00 | 0.00 | 0.00 | 28 | 1015.2 |
| 20260905220204 | 87 | 353 | 15.0 | 24.0 | 0.00 | 0.00 | 0.00 | 27 | 1015.2 |
| 20260905215705 | 87 | 19 | 16.0 | 24.0 | 0.00 | 0.00 | 0.00 | 27 | 1015.2 |
| 20260905215205 | 87 | 11 | 15.0 | 24.0 | 0.00 | 0.00 | 0.00 | 27 | 1015.3 |
| 20260905214205 | 87 | 15 | 12.0 | 23.0 | 0.00 | 0.00 | 0.00 | 25 | 1015.5 |
| 20260905213706 | 88 | 20 | 8.0 | 23.0 | 0.00 | 0.00 | 0.00 | 24 | 1015.4 |
| 20260905213204 | 88 | 42 | 7.0 | 23.0 | 0.00 | 0.00 | 0.00 | 17 | 1015.5 |
| 20260905212704 | 87 | 70 | 9.0 | 18.0 | 0.00 | 0.00 | 0.00 | 20 | 1015.4 |
| 20260905212204 | 87 | 353 | 9.0 | 15.0 | 0.00 | 0.00 | 0.00 | 21 | 1015.5 |
| 20260905211704 | 89 | 358 | 5.0 | 14.0 | 0.00 | 0.00 | 0.00 | 22 | 1015.6 |
| 20260905211204 | 89 | 358 | 6.0 | 14.0 | 0.00 | 0.00 | 0.00 | 17 | 1015.5 |
| 20260905210704 | 89 | 80 | 5.0 | 16.0 | 0.00 | 0.00 | 0.00 | 17 | 1015.5 |
| 20260905210205 | 88 | 101 | 4.0 | 16.0 | 0.00 | 0.00 | 0.00 | 19 | 1015.3 |
| 20260905205705 | 88 | 83 | 6.0 | 16.0 | 0.00 | 0.00 | 0.00 | 18 | 1015.6 |
| 20260905205205 | 87 | 328 | 6.0 | 13.0 | 0.00 | 0.00 | 0.00 | 18 | 1015.3 |
| 20260905204704 | 87 | 349 | 6.0 | 13.0 | 0.00 | 0.00 | 0.00 | 22 | 1015.5 |
| 20260905202704 | 84 | 302 | 10.0 | 16.0 | 0.00 | 0.00 | 0.00 | 19 | 1016.0 |
| 20260905202204 | 84 | 252 | 10.0 | 16.0 | 0.00 | 0.00 | 0.00 | 19 | 1016.0 |
| 20260905201704 | 84 | 257 | 9.0 | 14.0 | 0.00 | 0.00 | 0.00 | 18 | 1016.1 |
| 20260905201204 | 84 | 282 | 7.0 | 14.0 | 0.00 | 0.00 | 0.00 | 18 | 1016.2 |
| 20260905200704 | 85 | 254 | 8.0 | 19.0 | 0.00 | 0.00 | 0.00 | 18 | 1016.2 |
| 20260905200206 | 85 | 293 | 10.0 | 19.0 | 0.00 | 0.00 | 0.00 | 18 | 1016.2 |
| 20260905194704 | 84 | 275 | 7.0 | 22.0 | 0.00 | 0.00 | 0.00 | 18 | 1016.3 |
| 20260905194205 | 83 | 337 | 8.0 | 22.0 | 0.00 | 0.00 | 0.00 | 18 | 1016.3 |
| 20260905193204 | 84 | 132 | 4.0 | 14.0 | 0.00 | 0.00 | 0.00 | 19 | 1016.2 |
| 20260905192704 | 84 | 25 | 3.0 | 14.0 | 0.00 | 0.00 | 0.00 | 18 | 1016.4 |
| 20260905191204 | 82 | 224 | 4.0 | 11.0 | 0.00 | 0.00 | 0.00 | 20 | 1016.5 |
| 20260905190704 | 82 | 358 | 5.0 | 12.0 | 0.00 | 0.00 | 0.00 | 19 | 1016.7 |
| 20260905190206 | 82 | 270 | 4.0 | 12.0 | 0.00 | 0.00 | 0.00 | 19 | 1016.7 |
| 20260905185704 | 82 | 305 | 5.0 | 11.0 | 0.00 | 0.00 | 0.00 | 19 | 1016.7 |
| 20260905184704 | 82 | 301 | 5.0 | 11.0 | 0.00 | 0.00 | 0.00 | 20 | 1016.7 |
| 20260905184205 | 82 | 305 | 4.0 | 8.0 | 0.00 | 0.00 | 0.00 | 20 | 1017.0 |
| 20260905183204 | 82 | 333 | 3.0 | 8.0 | 0.00 | 0.00 | 0.00 | 22 | 1017.0 |
| 20260905182704 | 81 | 333 | 4.0 | 8.0 | 0.00 | 0.00 | 0.00 | 21 | 1017.1 |
| 20260905182205 | 81 | 297 | 3.0 | 8.0 | 0.00 | 0.00 | 0.00 | 21 | 1017.1 |
| 20260905181704 | 81 | 113 | 3.0 | 7.0 | 0.00 | 0.00 | 0.00 | 22 | 1017.0 |
| 20260905181204 | 80 | 113 | 3.0 | 7.0 | 0.00 | 0.00 | 0.00 | 23 | 1017.1 |
| 20260905180704 | 80 | 114 | 3.0 | 6.0 | 0.00 | 0.00 | 0.00 | 24 | 1017.0 |
| 20260905180204 | 79 | 114 | 2.0 | 4.0 | 0.00 | 0.00 | 0.00 | 24 | 1017.0 |
| 20260905175705 | 79 | 111 | 2.0 | 4.0 | 0.00 | 0.00 | 0.00 | 24 | 1017.1 |
| 20260905175204 | 79 | 111 | 2.0 | 4.0 | 0.00 | 0.00 | 0.00 | 24 | 1017.1 |
| 20260905174706 | 78 | 111 | 2.0 | 6.0 | 0.00 | 0.00 | 0.00 | 26 | 1017.1 |
| 20260905173704 | 76 | 99 | 3.0 | 7.0 | 0.00 | 0.00 | 0.00 | 26 | 1017.1 |
| 20260905173204 | 76 | 96 | 3.0 | 7.0 | 0.00 | 0.00 | 0.00 | 26 | 1017.0 |
| 20260905172704 | 76 | 96 | 2.0 | 10.0 | 0.00 | 0.00 | 0.00 | 26 | 1017.1 |
| 20260905172204 | 76 | 94 | 3.0 | 10.0 | 0.00 | 0.00 | 0.00 | 27 | 1017.1 |
| 20260905171704 | 76 | 94 | 4.0 | 9.0 | 0.00 | 0.00 | 0.00 | 27 | 1017.1 |
| 20260905171204 | 75 | 84 | 3.0 | 9.0 | 0.00 | 0.00 | 0.00 | 27 | 1017.0 |
| 20260905170704 | 74 | 84 | 4.0 | 10.0 | 0.00 | 0.00 | 0.00 | 28 | 1017.0 |
| 20260905165704 | 74 | 91 | 5.0 | 10.0 | 0.00 | 0.00 | 0.00 | 28 | 1017.0 |
| 20260905165205 | 74 | 89 | 3.0 | 9.0 | 0.00 | 0.00 | 0.00 | 28 | 1017.0 |
| 20260905164704 | 74 | 91 | 3.0 | 9.0 | 0.00 | 0.00 | 0.00 | 28 | 1017.0 |
| 20260905164204 | 73 | 92 | 3.0 | 8.0 | 0.00 | 0.00 | 0.00 | 28 | 1017.0 |
| 20260905162704 | 72 | 95 | 4.0 | 9.0 | 0.00 | 0.00 | 0.00 | 29 | 1016.8 |
| 20260905162204 | 72 | 103 | 4.0 | 10.0 | 0.00 | 0.00 | 0.00 | 30 | 1016.7 |
| 20260905161204 | 72 | 95 | 6.0 | 10.0 | 0.00 | 0.00 | 0.00 | 30 | 1016.6 |
| 20260905160704 | 72 | 105 | 4.0 | 6.0 | 0.00 | 0.00 | 0.00 | 30 | 1016.5 |
| 20260905155204 | 71 | 328 | 3.0 | 5.0 | 0.00 | 0.00 | 0.00 | 31 | 1016.4 |
| 20260905154704 | 70 | 327 | 3.0 | 5.0 | 0.00 | 0.00 | 0.00 | 33 | 1016.4 |
| 20260905154205 | 70 | 323 | 3.0 | 5.0 | 0.00 | 0.00 | 0.00 | 34 | 1016.4 |
| 20260905153704 | 70 | 323 | 3.0 | 5.0 | 0.00 | 0.00 | 0.00 | 33 | 1016.4 |
| 20260905153206 | 70 | 323 | 3.0 | 6.0 | 0.00 | 0.00 | 0.00 | 34 | 1016.4 |
| 20260905152704 | 69 | 323 | 3.0 | 6.0 | 0.00 | 0.00 | 0.00 | 33 | 1016.3 |
| 20260905152204 | 69 | 323 | 3.0 | 8.0 | 0.00 | 0.00 | 0.00 | 33 | 1016.2 |
| 20260905151704 | 68 | 323 | 4.0 | 8.0 | 0.00 | 0.00 | 0.00 | 35 | 1016.2 |
| 20260905151206 | 68 | 323 | 4.0 | 8.0 | 0.00 | 0.00 | 0.00 | 35 | 1016.1 |
| 20260905150705 | 68 | 319 | 4.0 | 6.0 | 0.00 | 0.00 | 0.00 | 35 | 1016.1 |
| 20260905150204 | 67 | 319 | 3.0 | 6.0 | 0.00 | 0.00 | 0.00 | 35 | 1016.1 |
| 20260905145704 | 67 | 319 | 3.0 | 6.0 | 0.00 | 0.00 | 0.00 | 36 | 1016.0 |
| 20260905145206 | 67 | 319 | 3.0 | 5.0 | 0.00 | 0.00 | 0.00 | 37 | 1016.0 |
| 20260905144205 | 65 | 319 | 3.0 | 5.0 | 0.00 | 0.00 | 0.00 | 39 | 1016.0 |
| 20260905143704 | 63 | 319 | 3.0 | 5.0 | 0.00 | 0.00 | 0.00 | 41 | 1016.1 |
| 20260905143206 | 62 | 319 | 3.0 | 5.0 | 0.00 | 0.00 | 0.00 | 46 | 1016.0 |
| 20260905142704 | 60 | 319 | 4.0 | 5.0 | 0.00 | 0.00 | 0.00 | 49 | 1016.0 |
| 20260905142204 | 60 | 319 | 4.0 | 8.0 | 0.00 | 0.00 | 0.00 | 49 | 1016.0 |
| 20260905141704 | 59 | 319 | 5.0 | 8.0 | 0.00 | 0.00 | 0.00 | 50 | 1016.0 |
| 20260905141205 | 59 | 319 | 5.0 | 8.0 | 0.00 | 0.00 | 0.00 | 51 | 1016.0 |
| 20260905140704 | 58 | 319 | 5.0 | 8.0 | 0.00 | 0.00 | 0.00 | 52 | 1016.0 |
| 20260905140205 | 57 | 319 | 4.0 | 5.0 | 0.00 | 0.00 | 0.00 | 53 | 1016.0 |
| 20260905135704 | 57 | 319 | 4.0 | 5.0 | 0.00 | 0.00 | 0.00 | 54 | 1015.9 |
| 20260905135206 | 56 | 319 | 4.0 | 5.0 | 0.00 | 0.00 | 0.00 | 55 | 1015.7 |
| 20260905134705 | 56 | 319 | 4.0 | 5.0 | 0.00 | 0.00 | 0.00 | 54 | 1015.6 |
| 20260905134204 | 57 | 319 | 4.0 | 5.0 | 0.00 | 0.00 | 0.00 | 54 | 1015.6 |
| 20260905133704 | 57 | 319 | 4.0 | 5.0 | 0.00 | 0.00 | 0.00 | 54 | 1015.6 |
| 20260905133206 | 57 | 319 | 4.0 | 5.0 | 0.00 | 0.00 | 0.00 | 54 | 1015.5 |
| 20260905132704 | 57 | 319 | 4.0 | 8.0 | 0.00 | 0.00 | 0.00 | 54 | 1015.3 |
| 20260905131704 | 56 | 319 | 5.0 | 8.0 | 0.00 | 0.00 | 0.00 | 54 | 1015.4 |
| 20260905131206 | 56 | 318 | 5.0 | 8.0 | 0.00 | 0.00 | 0.00 | 54 | 1015.3 |
| 20260905130704 | 56 | 318 | 5.0 | 6.0 | 0.00 | 0.00 | 0.00 | 55 | 1015.3 |
| 20260905130204 | 56 | 318 | 5.0 | 6.0 | 0.00 | 0.00 | 0.00 | 55 | 1015.3 |
| 20260905125704 | 56 | 318 | 5.0 | 6.0 | 0.00 | 0.00 | 0.00 | 56 | 1015.2 |
| 20260905125205 | 56 | 317 | 4.0 | 6.0 | 0.00 | 0.00 | 0.00 | 56 | 1015.3 |
| 20260905124704 | 57 | 317 | 4.0 | 5.0 | 0.00 | 0.00 | 0.00 | 55 | 1015.3 |
| 20260905124204 | 56 | 317 | 3.0 | 5.0 | 0.00 | 0.00 | 0.00 | 58 | 1015.2 |
| 20260905123204 | 55 | 317 | 3.0 | 4.0 | 0.00 | 0.00 | 0.00 | 60 | 1015.2 |
| 20260905122704 | 55 | 317 | 3.0 | 4.0 | 0.00 | 0.00 | 0.00 | 59 | 1015.3 |
| 20260905122204 | 54 | 317 | 3.0 | 5.0 | 0.00 | 0.00 | 0.00 | 60 | 1015.3 |
| 20260905121704 | 55 | 317 | 3.0 | 5.0 | 0.00 | 0.00 | 0.00 | 59 | 1015.2 |
| 20260905121204 | 55 | 317 | 3.0 | 5.0 | 0.00 | 0.00 | 0.00 | 59 | 1015.3 |
| 20260905120705 | 55 | 317 | 3.0 | 4.0 | 0.00 | 0.00 | 0.00 | 58 | 1015.3 |
| 20260905120204 | 55 | 317 | 3.0 | 4.0 | 0.00 | 0.00 | 0.00 | 58 | 1015.3 |
| 20260905115704 | 55 | 317 | 3.0 | 4.0 | 0.00 | 0.00 | 0.00 | 57 | 1015.3 |
| 20260905114704 | 55 | 317 | 2.0 | 5.0 | 0.00 | 0.00 | 0.00 | 56 | 1015.3 |
| 20260905114204 | 55 | 317 | 3.0 | 5.0 | 0.00 | 0.00 | 0.00 | 57 | 1015.3 |
| 20260905113704 | 55 | 317 | 3.0 | 5.0 | 0.00 | 0.00 | 0.00 | 56 | 1015.3 |
| 20260905113204 | 56 | 317 | 3.0 | 4.0 | 0.00 | 0.00 | 0.00 | 55 | 1015.3 |
| 20260905112705 | 56 | 317 | 3.0 | 4.0 | 0.00 | 0.00 | 0.00 | 54 | 1015.3 |
| 20260905112204 | 56 | 317 | 2.0 | 6.0 | 0.00 | 0.00 | 0.00 | 54 | 1015.3 |
| 20260905111204 | 56 | 317 | 3.0 | 6.0 | 0.00 | 0.00 | 0.00 | 53 | 1015.4 |
| 20260905110704 | 56 | 317 | 4.0 | 6.0 | 0.00 | 0.00 | 0.00 | 53 | 1015.5 |
| 20260905110204 | 56 | 317 | 4.0 | 6.0 | 0.00 | 0.00 | 0.00 | 54 | 1015.5 |
| 20260905105704 | 56 | 317 | 4.0 | 6.0 | 0.00 | 0.00 | 0.00 | 54 | 1015.4 |
| 20260905105205 | 56 | 317 | 4.0 | 5.0 | 0.00 | 0.00 | 0.00 | 53 | 1015.4 |
| 20260905104704 | 57 | 317 | 4.0 | 5.0 | 0.00 | 0.00 | 0.00 | 53 | 1015.5 |
| 20260905104204 | 57 | 317 | 3.0 | 5.0 | 0.00 | 0.00 | 0.00 | 54 | 1015.4 |
| 20260905102705 | 57 | 317 | 3.0 | 4.0 | 0.00 | 0.00 | 0.00 | 53 | 1015.4 |
| 20260905102204 | 57 | 317 | 3.0 | 4.0 | 0.00 | 0.00 | 0.00 | 53 | 1015.4 |
| 20260905101704 | 58 | 317 | 2.0 | 3.0 | 0.00 | 0.00 | 0.00 | 51 | 1015.4 |
| 20260905100704 | 59 | 317 | 1.0 | 2.0 | 0.00 | 0.00 | 0.00 | 50 | 1015.4 |
| 20260905100204 | 59 | 317 | 1.0 | 3.0 | 0.00 | 0.00 | 0.00 | 49 | 1015.4 |
| 20260905095704 | 60 | 317 | 0.0 | 4.0 | 0.00 | 0.00 | 0.00 | 48 | 1015.4 |
| 20260905095204 | 60 | 317 | 1.0 | 4.0 | 0.00 | 0.00 | 0.00 | 48 | 1015.4 |
| 20260905094704 | 61 | 317 | 2.0 | 4.0 | 0.00 | 0.00 | 0.00 | 47 | 1015.4 |
| 20260905094203 | 61 | 317 | 3.0 | 5.0 | 0.00 | 0.00 | 0.00 | 47 | 1015.4 |
| 20260905093704 | 61 | 317 | 3.0 | 6.0 | 0.00 | 0.00 | 0.00 | 48 | 1015.4 |
| 20260905093204 | 60 | 317 | 4.0 | 6.0 | 0.00 | 0.00 | 0.00 | 49 | 1015.3 |
| 20260905092704 | 60 | 317 | 4.0 | 6.0 | 0.00 | 0.00 | 0.00 | 51 | 1015.3 |
| 20260905092204 | 59 | 317 | 4.0 | 6.0 | 0.00 | 0.00 | 0.00 | 53 | 1015.3 |
| 20260905091204 | 58 | 317 | 4.0 | 5.0 | 0.00 | 0.00 | 0.00 | 55 | 1015.2 |
| 20260905090704 | 57 | 316 | 4.0 | 6.0 | 0.00 | 0.00 | 0.00 | 56 | 1015.2 |
| 20260905090204 | 57 | 316 | 4.0 | 6.0 | 0.00 | 0.00 | 0.00 | 56 | 1015.3 |
| 20260905085704 | 58 | 316 | 4.0 | 5.0 | 0.00 | 0.00 | 0.00 | 56 | 1015.4 |
| 20260905085204 | 57 | 316 | 4.0 | 8.0 | 0.00 | 0.00 | 0.00 | 56 | 1015.4 |
| 20260905084205 | 57 | 316 | 5.0 | 9.0 | 0.00 | 0.00 | 0.00 | 56 | 1015.5 |
| 20260905083704 | 56 | 316 | 5.0 | 8.0 | 0.00 | 0.00 | 0.00 | 57 | 1015.5 |
| 20260905083204 | 56 | 258 | 3.0 | 5.0 | 0.00 | 0.00 | 0.00 | 56 | 1015.5 |
| 20260905082204 | 56 | 250 | 3.0 | 5.0 | 0.00 | 0.00 | 0.00 | 56 | 1015.6 |
| 20260905081704 | 56 | 250 | 3.0 | 5.0 | 0.00 | 0.00 | 0.00 | 56 | 1015.7 |
| 20260905081205 | 56 | 145 | 2.0 | 4.0 | 0.00 | 0.00 | 0.00 | 56 | 1015.7 |
| 20260905080704 | 56 | 145 | 2.0 | 4.0 | 0.00 | 0.00 | 0.00 | 56 | 1015.6 |
| 20260905075704 | 57 | 145 | 3.0 | 5.0 | 0.00 | 0.00 | 0.00 | 57 | 1015.6 |
| 20260905075204 | 57 | 145 | 3.0 | 5.0 | 0.00 | 0.00 | 0.00 | 57 | 1015.7 |
| 20260905074704 | 57 | 145 | 3.0 | 5.0 | 0.00 | 0.00 | 0.00 | 56 | 1015.7 |
| 20260905074205 | 58 | 145 | 4.0 | 5.0 | 0.00 | 0.00 | 0.00 | 55 | 1015.7 |
| 20260905073204 | 58 | 145 | 4.0 | 5.0 | 0.00 | 0.00 | 0.00 | 54 | 1015.7 |
| 20260905072206 | 59 | 145 | 3.0 | 4.0 | 0.00 | 0.00 | 0.00 | 51 | 1015.7 |
| 20260905071704 | 59 | 145 | 3.0 | 4.0 | 0.00 | 0.00 | 0.00 | 50 | 1015.7 |
| 20260905071204 | 59 | 145 | 2.0 | 3.0 | 0.00 | 0.00 | 0.00 | 49 | 1015.7 |
| 20260905070704 | 60 | 145 | 2.0 | 3.0 | 0.00 | 0.00 | 0.00 | 49 | 1015.7 |
| 20260905070205 | 60 | 145 | 2.0 | 3.0 | 0.00 | 0.00 | 0.00 | 49 | 1015.6 |
| 20260905065704 | 60 | 145 | 2.0 | 4.0 | 0.00 | 0.00 | 0.00 | 48 | 1015.6 |
| 20260905065204 | 60 | 145 | 2.0 | 4.0 | 0.00 | 0.00 | 0.00 | 48 | 1015.7 |
| 20260905064704 | 60 | 145 | 3.0 | 4.0 | 0.00 | 0.00 | 0.00 | 48 | 1015.7 |
| 20260905064206 | 60 | 145 | 3.0 | 4.0 | 0.00 | 0.00 | 0.00 | 47 | 1015.7 |
| 20260905062704 | 62 | 145 | 2.0 | 3.0 | 0.00 | 0.00 | 0.00 | 45 | 1015.7 |
| 20260905062206 | 62 | 145 | 2.0 | 4.0 | 0.00 | 0.00 | 0.00 | 45 | 1015.7 |
| 20260905061704 | 62 | 145 | 2.0 | 4.0 | 0.00 | 0.00 | 0.00 | 45 | 1015.7 |
| 20260905061204 | 62 | 145 | 2.0 | 4.0 | 0.00 | 0.00 | 0.00 | 45 | 1015.6 |